Zurück zum Katalog

FENGYUN 1C DEB

AktivPO
NORAD 38498·DEBRIS·🇨🇳 China

Gestartet May 10, 1999 von Taiyuan Satellite Launch Center

Loading…

Nächste Überflüge (nächste 24 Stunden)

TLE

AktuellSource: Space-Track

Epoche: Sep 14, 2026, 05:12 UTC

1 38498U 99025ESH 26257.21734764  .00000887  00000-0  15736-2 0  9990
2 38498  99.6960 252.6027 0554378 165.3838 196.4054 12.97043214573145

Verfolge FENGYUN 1C DEB in Echtzeit mit AllMySat

Download on the App Store